Temperature
16 16 16 16 16 16 16 16 16 16 15 15 15 15 14 14 14 14 14 14 13 13 13 13 13 12 12 12 12 12 12 12 12 12 12 12 12 12 12 12 12 12 12
16 16 16 16 16 15 15 15 15 15 15 15 14 14 14 14 14 13 13 13 13 13 13 12 12 12 12 12 12 12 12 12 11 11 11 11 12 12 12 12 12 12 12
15 15 15 15 15 15 15 14 14 14 14 14 14 14 13 13 13 13 13 13 13 13 12 12 12 12 12 12 12 12 11 11 11 11 11 11 11 11 11 11 11 11 11
14 14 15 15 14 14 14 14 14 13 13 13 13 13 13 13 13 13 13 13 13 12 12 12 12 12 12 12 11 11 11 11 11 11 11 11 11 11 11 11 11 11 11
14 14 14 14 14 14 14 13 13 13 13 13 13 13 13 13 13 13 13 13 13 12 12 12 12 11 11 11 11 11 11 11 11 11 11 10 10 10 10 10 10 10 10
14 14 14 14 14 14 13 13 13 13 13 13 13 13 13 13 13 13 13 13 13 12 12 11 11 11 11 11 11 11 11 11 10 10 10 10 10 10 10 10 10 10 10
14 14 14 14 14 14 14 13 13 13 13 13 12 13 13 13 13 13 13 13 12 12 12 11 11 11 11 11 10 10 10 10 10 10 10 10 10 10 10 10 10 10 10
14 14 14 14 14 14 14 13 13 13 13 13 12 11 11 12 12 12 12 12 12 12 11 11 11 11 10 10 10 10 10 10 9 9 9 9 9 9 9 9 9 9 9
14 14 14 14 14 14 14 13 13 13 13 12 12 11 10 10 11 11 11 11 11 11 10 10 10 10 10 10 9 9 9 9 9 9 9 9 9 9 9 9 9 9 9
14 14 14 14 14 14 14 13 13 13 12 12 12 11 10 10 9 10 10 10 10 10 10 10 10 9 9 9 9 9 8 8 8 8 8 8 8 8 9 9 9 9 9
14 14 14 14 14 13 13 13 13 12 12 12 11 11 10 10 9 9 9 9 9 9 9 9 9 9 8 8 8 8 8 8 8 8 8 8 8 8 8 8 8 8 9
14 14 13 13 13 13 13 13 12 12 11 11 11 10 9 9 9 8 8 8 8 8 8 8 8 8 8 8 7 7 7 7 7 7 7 7 7 7 7 7 8 8 8
14 14 13 13 13 13 12 12 12 11 11 10 10 9 9 8 8 8 7 7 7 7 7 7 7 7 7 7 7 7 6 6 6 6 6 6 6 7 7 7 7 7 7
13 13 13 13 12 12 12 11 11 11 10 10 9 9 8 8 8 7 7 7 7 7 7 7 7 7 6 6 6 6 6 6 6 6 6 6 6 6 6 6 6 6 7
13 12 12 12 12 11 11 11 10 10 9 9 8 8 7 7 7 6 6 6 6 6 6 6 6 6 6 6 5 5 5 5 5 5 5 5 5 5 5 5 6 6 6
12 12 12 11 11 10 10 10 9 9 8 8 7 7 7 6 6 6 6 6 5 5 5 5 5 5 5 5 5 5 4 4 4 4 4 4 4 4 5 5 5 5 6
11 11 11 10 10 9 9 9 8 7 7 6 6 6 6 5 5 5 5 5 5 5 5 5 4 4 4 4 4 4 4 4 3 3 3 3 3 3 4 4 4 4 5
10 10 10 9 9 8 8 7 7 6 6 5 5 5 5 5 5 5 5 5 5 4 4 4 4 3 3 3 3 3 3 3 3 3 2 2 3 3 3 3 3 4 4
9 9 9 8 8 7 7 6 5 5 5 4 4 4 4 4 4 4 4 4 4 4 4 4 3 3 3 2 2 2 2 2 2 2 2 2 2 2 2 2 3 3 3
8 8 8 7 7 6 5 5 4 4 3 3 3 3 3 3 3 3 3 3 3 3 3 3 3 2 2 2 2 2 2 2 2 2 1 1 2 2 2 2 2 2 2
7 7 6 6 5 4 4 3 3 3 2 2 2 2 2 2 2 2 3 3 3 3 3 2 2 2 2 1 1 1 1 1 1 1 1 1 1 1 1 1 1 2 2
6 6 5 4 4 3 3 2 2 2 2 2 2 2 2 2 2 2 2 2 2 2 2 2 2 1 1 1 1 1 1 0 0 0 0 0 0 0 1 1 1 1 1
5 5 4 3 3 2 2 2 1 1 1 1 1 1 1 1 1 1 1 1 1 1 1 1 1 1 1 0 0 0 0 -0 -0 -0 -0 -0 -0 -0 -0 0 0 0 0
4 4 3 2 2 1 1 1 1 1 1 1 1 1 1 1 1 1 1 1 1 1 1 1 1 0 0 -0 -0 -0 -0 -0 -1 -1 -1 -1 -1 -1 -0 -0 -0 -0 -0
3 3 2 1 1 1 1 0 0 0 0 0 0 0 0 0 0 0 1 1 0 0 0 0 0 -0 -0 -0 -0 -1 -1 -1 -1 -1 -1 -1 -1 -1 -1 -1 -1 -1 -1
2 2 1 1 1 0 -0 -0 -0 0 0 0 0 0 0 0 0 0 0 0 0 -0 -0 -0 -0 -0 -1 -1 -1 -1 -1 -1 -2 -2 -2 -2 -2 -2 -2 -2 -2 -2 -2
Wind_Speed
7 8 8 9 9 9 8 7 7 7 7 7 8 8 7 8 8 9 10 12 14 14 13 12 11 11 11 11 10 10 9 8 7 6 6 5 4 3 2 2 1 2 3
10 8 6 7 8 10 10 9 7 5 4 4 4 5 6 7 8 9 11 12 14 16 15 14 13 13 13 12 12 12 11 11 10 9 9 8 7 6 5 4 3 3 2
11 9 5 5 7 9 9 7 5 3 2 2 3 4 5 6 7 9 10 11 12 14 16 16 15 14 13 13 13 12 12 12 12 12 11 10 10 9 9 8 6 6 5
12 9 5 4 6 6 5 3 2 2 2 2 3 3 4 6 8 9 10 10 11 12 13 15 15 14 12 12 12 12 11 10 12 12 13 12 11 11 11 11 10 9 8
12 9 5 5 5 3 2 2 2 2 2 3 4 4 4 4 6 8 9 10 10 11 11 11 12 12 10 9 9 9 9 8 8 11 13 13 13 13 12 13 13 12 11
11 9 5 5 4 2 1 1 2 2 2 3 4 4 5 6 5 5 6 7 7 7 7 6 5 4 4 4 4 6 7 8 7 7 10 13 15 15 15 14 14 14 14
9 8 4 3 3 2 2 2 1 2 2 1 2 4 5 5 5 5 3 3 3 4 3 2 3 2 3 3 4 4 6 8 8 8 7 9 12 15 17 16 16 16 16
8 7 5 3 2 2 1 1 1 1 1 0 1 2 4 5 4 3 3 1 1 1 2 3 4 5 5 5 6 7 7 8 9 9 9 8 9 11 14 17 18 18 17
7 7 6 4 3 3 2 1 1 2 2 1 2 3 2 3 3 4 3 3 3 2 2 4 6 7 7 6 6 7 8 8 9 10 10 10 10 10 12 13 16 18 18
6 7 6 5 3 2 2 2 2 2 2 2 2 2 4 3 3 4 3 3 3 3 3 3 5 7 7 7 8 8 9 9 9 10 10 10 11 10 10 11 11 14 17
5 6 6 4 3 2 2 1 1 1 1 2 3 2 3 3 4 4 4 3 2 3 4 4 5 6 7 7 8 9 10 10 10 10 10 10 10 10 10 10 9 9 11
3 4 5 4 3 3 2 1 1 1 1 2 2 2 3 3 3 4 4 3 2 1 4 4 4 5 7 8 8 9 10 11 11 10 11 11 11 10 10 10 9 8 8
3 3 3 3 3 3 2 2 1 1 1 2 2 2 2 3 2 2 3 3 3 1 2 4 4 6 7 8 8 10 11 11 11 11 12 12 11 10 9 9 9 8 7
4 4 4 3 3 3 2 1 0 1 1 1 2 2 2 2 1 2 2 2 2 2 2 2 3 5 6 7 8 10 10 12 12 13 13 14 13 11 10 9 8 7 6
4 5 5 4 3 3 2 1 1 0 0 1 1 1 1 0 0 1 1 2 3 3 3 3 2 2 5 7 8 9 9 10 11 12 13 14 14 13 11 10 9 7 6
5 6 5 4 4 3 2 1 0 0 1 0 0 1 1 1 1 1 1 1 1 2 2 2 2 2 3 4 7 8 8 9 10 11 12 13 14 14 13 12 12 11 8
6 6 5 5 4 2 2 2 1 1 2 1 2 2 2 2 2 2 1 1 1 0 2 2 2 2 2 3 4 6 7 8 9 10 11 12 13 13 14 15 14 14 12
6 5 5 4 4 3 2 2 2 2 2 2 2 2 2 2 3 2 2 2 2 1 1 2 2 1 2 2 2 3 4 6 7 9 10 10 11 12 12 13 14 14 14
6 5 5 4 4 3 2 2 3 3 3 3 3 3 2 3 3 2 3 2 2 2 1 2 2 1 2 1 2 2 3 4 6 8 9 9 10 10 11 12 13 13 13
6 5 4 4 4 3 3 3 3 4 4 4 4 4 4 3 3 2 2 2 1 2 2 3 2 2 2 2 2 2 2 3 3 6 8 8 9 9 10 10 11 12 12
6 6 5 4 3 3 3 3 4 5 5 5 4 4 4 4 4 3 2 1 1 2 2 2 2 2 1 1 1 1 1 2 2 3 4 5 6 6 8 9 9 9 9
5 5 5 5 4 3 4 6 5 4 5 5 4 3 3 3 4 5 5 4 3 2 2 2 2 2 2 1 1 1 1 1 2 3 3 3 4 3 5 7 7 8 7
5 5 5 5 4 4 6 6 7 5 5 5 5 3 2 2 4 3 4 6 6 5 3 4 3 3 3 3 2 1 0 1 2 3 2 2 3 3 5 7 7 5 6
5 4 5 5 5 5 7 7 8 5 4 4 4 4 3 2 2 3 3 3 3 3 2 3 4 3 3 3 3 3 2 1 2 2 2 1 3 3 4 8 6 4 5
5 4 4 6 5 5 8 8 8 4 3 3 3 3 4 3 4 5 4 2 1 1 2 4 4 4 4 4 4 3 2 2 1 2 2 1 2 3 3 3 6 7 6
5 5 5 5 6 5 8 9 9 4 4 3 2 3 6 6 5 5 5 4 3 2 0 1 2 2 2 2 2 3 3 2 1 2 2 1 2 3 4 3 3 6 7
Wind_Direction
180 187 198 201 206 211 218 228 237 246 255 256 248 245 251 255 256 252 251 246 242 241 243 243 243 243 245 248 248 245 238 235 233 229 226 222 215 210 196 170 139 122 99
181 182 189 201 210 216 220 223 226 232 243 248 252 251 257 267 267 263 259 256 250 248 248 249 250 251 252 253 254 250 242 235 232 229 228 226 221 218 214 206 197 180 160
183 179 177 189 205 212 214 215 224 225 236 248 265 273 273 276 280 278 272 263 258 255 252 252 254 255 258 261 264 261 251 238 232 228 227 226 225 222 219 215 210 204 195
184 177 175 188 199 196 195 194 202 220 245 257 270 277 277 280 280 279 276 269 264 261 259 255 255 258 261 265 272 275 270 255 240 233 229 226 224 224 223 219 216 213 208
183 176 179 190 187 177 186 196 200 204 242 265 270 274 276 273 272 277 274 274 270 264 260 259 256 257 264 273 283 294 300 294 271 247 236 230 226 225 225 223 219 218 214
180 175 175 181 174 163 190 209 228 234 238 258 280 283 278 274 271 270 271 276 275 268 260 252 247 250 261 282 307 322 327 329 320 292 258 243 234 228 227 226 223 220 218
172 167 164 165 162 171 196 214 225 255 264 266 305 304 296 283 279 277 275 273 278 273 253 208 177 148 102 73 41 15 356 348 343 333 309 273 251 239 233 229 226 223 221
164 163 155 152 145 161 173 189 180 229 268 202 203 296 315 326 321 322 331 324 320 8 79 105 111 109 101 81 58 43 25 8 356 346 335 314 285 262 246 238 232 226 222
147 142 146 144 139 149 169 193 186 193 236 263 204 211 244 269 308 313 346 18 23 41 56 78 88 90 86 76 60 44 30 14 358 345 334 324 312 289 270 258 245 235 227
139 139 137 139 138 141 155 184 177 186 195 234 255 233 225 218 248 297 316 350 27 42 48 65 73 72 73 70 59 46 33 19 3 349 336 328 320 310 300 283 268 249 237
136 134 133 132 129 129 136 143 163 178 201 219 225 238 248 241 227 237 273 299 358 36 45 49 62 65 63 64 58 47 37 23 8 354 343 336 332 330 326 318 302 282 260
136 130 129 126 123 123 128 137 162 172 208 235 237 228 226 233 230 224 244 252 254 78 50 42 49 59 59 59 57 49 39 27 14 1 351 349 345 336 328 324 315 307 295
150 147 131 130 129 131 130 126 155 216 238 246 250 250 249 247 243 235 241 247 240 186 103 52 33 52 59 59 54 48 39 31 23 14 8 6 358 347 341 332 327 318 307
151 148 135 130 125 122 112 100 142 247 227 251 266 263 255 260 253 241 238 228 243 228 156 124 48 44 51 55 55 49 36 32 30 25 22 20 14 8 1 353 347 344 338
140 140 135 133 127 122 117 114 153 262 263 253 261 288 262 276 328 286 264 233 225 231 213 147 120 50 53 57 53 49 37 30 31 28 26 23 21 19 16 16 17 8 357
133 136 133 133 131 126 117 115 164 203 171 175 77 81 67 47 39 13 327 296 257 231 207 124 114 95 57 64 55 51 40 32 31 31 28 27 26 28 31 31 29 25 19
136 139 142 138 137 133 120 128 156 163 155 123 93 102 80 60 60 25 11 17 9 251 194 118 105 99 74 55 42 45 41 33 24 27 29 30 32 32 33 35 35 35 38
136 137 137 137 138 132 130 143 148 144 150 141 120 108 91 83 70 44 38 41 32 18 149 151 121 108 83 64 44 38 31 28 22 22 26 28 31 33 34 36 38 39 39
135 132 135 140 140 141 140 139 139 130 124 117 109 106 96 99 83 62 56 47 23 22 53 126 123 103 82 65 56 35 30 18 18 18 20 22 27 33 36 38 38 39 39
143 141 139 142 145 145 144 145 139 128 115 102 94 93 89 98 105 92 66 44 39 63 76 104 111 99 84 58 64 39 12 7 2 6 11 17 23 29 32 34 35 36 38
150 148 143 144 145 148 156 156 151 143 132 117 99 88 88 100 111 109 101 74 80 95 100 108 114 107 95 67 57 13 0 336 345 4 350 1 7 14 17 20 24 28 31
150 152 155 155 158 165 169 172 159 148 145 139 129 105 89 73 83 85 88 87 98 123 144 136 136 147 148 133 104 44 22 8 314 347 1 341 4 356 351 357 8 21 28
162 163 164 162 166 178 181 178 170 147 146 149 150 150 142 118 91 70 69 60 50 61 110 150 152 165 165 176 157 137 173 217 265 311 354 327 347 338 335 348 355 18 32
169 169 172 170 169 188 187 179 163 137 137 148 160 165 161 156 164 144 114 80 47 30 64 100 138 156 168 175 178 179 191 236 294 338 22 323 332 321 322 338 354 19 25
170 172 172 172 175 190 188 179 157 138 147 167 180 183 178 192 202 165 140 133 90 354 76 128 142 158 170 175 167 128 110 72 348 337 9 9 333 323 318 321 349 6 5
175 173 178 183 184 193 196 188 173 157 169 187 205 214 209 206 212 185 160 166 188 220 196 86 67 52 45 40 120 145 152 143 183 282 335 22 356 359 335 313 326 345 353
Height
1559 1560 1562 1563 1564 1565 1566 1566 1566 1567 1567 1567 1566 1566 1566 1566 1565 1564 1564 1563 1562 1561 1561 1560 1559 1558 1556 1555 1554 1553 1552 1551 1551 1550 1549 1548 1547 1546 1545 1545 1544 1543 1543
1558 1559 1561 1562 1563 1563 1564 1565 1565 1565 1565 1565 1564 1564 1564 1563 1563 1562 1561 1560 1559 1559 1558 1557 1556 1556 1554 1553 1552 1551 1550 1550 1549 1548 1547 1547 1546 1545 1544 1543 1543 1542 1542
1557 1558 1559 1560 1561 1562 1562 1563 1563 1563 1563 1563 1562 1562 1562 1561 1560 1559 1558 1557 1556 1555 1555 1554 1554 1553 1552 1551 1550 1549 1548 1547 1546 1546 1545 1545 1544 1543 1543 1542 1542 1541 1541
1555 1556 1557 1558 1559 1560 1560 1561 1561 1561 1560 1560 1560 1559 1559 1558 1557 1556 1555 1554 1552 1552 1551 1550 1550 1549 1549 1548 1547 1546 1545 1544 1543 1543 1542 1542 1542 1541 1541 1540 1540 1540 1539
1553 1555 1555 1556 1557 1557 1558 1558 1558 1558 1558 1557 1557 1556 1555 1554 1553 1551 1550 1549 1548 1547 1547 1546 1546 1546 1545 1544 1544 1543 1542 1541 1540 1539 1539 1538 1538 1538 1538 1538 1538 1537 1537
1551 1552 1553 1554 1555 1555 1555 1556 1556 1555 1555 1554 1553 1551 1551 1549 1548 1547 1546 1545 1544 1543 1543 1542 1542 1542 1542 1541 1540 1539 1538 1537 1536 1535 1535 1534 1534 1534 1535 1535 1535 1535 1535
1549 1550 1551 1551 1552 1552 1552 1553 1552 1552 1551 1550 1549 1547 1546 1545 1544 1542 1541 1541 1540 1540 1539 1539 1539 1539 1538 1538 1537 1536 1535 1534 1533 1532 1531 1530 1530 1530 1530 1530 1531 1531 1532
1546 1547 1548 1548 1549 1549 1549 1549 1549 1548 1547 1547 1545 1543 1541 1540 1539 1539 1538 1538 1538 1537 1536 1536 1535 1535 1535 1534 1534 1533 1532 1531 1529 1528 1527 1526 1526 1526 1526 1526 1527 1527 1528
1543 1544 1544 1545 1545 1545 1545 1545 1545 1544 1543 1543 1542 1542 1540 1537 1536 1536 1535 1535 1534 1534 1533 1532 1532 1531 1531 1530 1530 1529 1528 1527 1526 1524 1523 1522 1521 1521 1521 1521 1522 1522 1523
1539 1540 1541 1542 1542 1541 1541 1541 1540 1540 1539 1538 1537 1537 1537 1535 1535 1532 1532 1532 1531 1530 1529 1529 1528 1527 1527 1526 1526 1525 1524 1523 1521 1520 1518 1517 1517 1517 1517 1516 1517 1517 1518
1536 1537 1537 1538 1538 1537 1537 1537 1536 1535 1534 1533 1533 1532 1531 1530 1530 1529 1527 1527 1527 1526 1525 1525 1524 1523 1523 1522 1522 1521 1520 1518 1517 1516 1514 1513 1512 1512 1511 1511 1512 1512 1513
1532 1532 1533 1533 1533 1533 1532 1532 1531 1530 1529 1528 1527 1526 1526 1525 1525 1524 1523 1523 1522 1522 1521 1520 1520 1519 1519 1518 1518 1517 1516 1514 1513 1512 1510 1509 1507 1507 1506 1507 1507 1507 1508
1527 1528 1529 1529 1529 1528 1528 1527 1526 1525 1524 1523 1522 1521 1520 1520 1520 1519 1519 1519 1518 1518 1517 1516 1516 1515 1515 1514 1514 1513 1512 1510 1509 1508 1506 1505 1503 1502 1502 1502 1502 1502 1503
1523 1524 1524 1524 1524 1523 1523 1522 1521 1520 1519 1517 1517 1516 1515 1514 1514 1514 1514 1515 1514 1514 1513 1512 1512 1511 1511 1511 1510 1509 1508 1507 1505 1504 1503 1501 1500 1499 1498 1497 1497 1498 1498
1519 1519 1519 1519 1519 1518 1517 1516 1516 1515 1514 1512 1511 1511 1510 1510 1509 1509 1509 1510 1511 1510 1509 1508 1508 1508 1508 1507 1507 1506 1505 1503 1502 1501 1500 1498 1497 1496 1495 1494 1494 1494 1495
1514 1514 1514 1514 1514 1513 1512 1511 1510 1509 1509 1508 1507 1506 1505 1505 1505 1505 1504 1505 1505 1506 1506 1505 1505 1504 1504 1504 1503 1502 1501 1500 1499 1498 1497 1496 1495 1494 1493 1492 1492 1492 1492
1509 1509 1509 1509 1508 1508 1507 1506 1505 1504 1504 1503 1502 1502 1501 1501 1500 1500 1500 1500 1501 1501 1501 1501 1501 1501 1500 1500 1499 1499 1498 1497 1496 1495 1495 1494 1493 1492 1492 1491 1490 1490 1490
1504 1504 1504 1503 1503 1502 1502 1501 1500 1500 1499 1499 1498 1498 1497 1497 1497 1496 1496 1496 1497 1497 1497 1497 1497 1497 1497 1497 1496 1495 1495 1494 1494 1493 1492 1492 1491 1491 1490 1490 1489 1489 1489
1500 1499 1499 1499 1498 1497 1496 1496 1495 1495 1495 1494 1494 1494 1494 1494 1493 1493 1493 1493 1493 1493 1493 1493 1494 1494 1493 1493 1493 1492 1492 1491 1491 1490 1490 1490 1489 1489 1489 1488 1488 1488 1488
1495 1495 1494 1494 1493 1492 1492 1491 1491 1490 1490 1490 1490 1490 1490 1490 1490 1490 1490 1490 1489 1490 1490 1490 1490 1490 1490 1490 1489 1489 1489 1489 1488 1488 1487 1487 1487 1487 1487 1486 1486 1486 1486
1490 1490 1490 1489 1488 1488 1487 1487 1487 1487 1487 1487 1487 1487 1487 1487 1487 1487 1487 1486 1486 1486 1486 1486 1486 1487 1487 1486 1486 1486 1486 1486 1485 1485 1485 1485 1484 1484 1484 1484 1484 1484 1484
1486 1486 1485 1484 1484 1483 1483 1483 1483 1483 1484 1484 1484 1484 1484 1484 1484 1484 1484 1483 1484 1484 1483 1483 1483 1484 1484 1484 1484 1484 1483 1483 1483 1483 1482 1482 1482 1482 1481 1481 1481 1481 1481
1482 1481 1481 1480 1480 1480 1480 1480 1480 1480 1481 1481 1481 1481 1481 1481 1481 1481 1481 1481 1481 1481 1481 1481 1481 1481 1481 1481 1481 1481 1481 1481 1480 1480 1480 1480 1479 1479 1479 1478 1478 1478 1478
1478 1477 1477 1477 1477 1477 1477 1477 1477 1478 1478 1478 1478 1479 1479 1479 1479 1479 1479 1479 1479 1479 1478 1478 1478 1478 1479 1479 1479 1479 1479 1478 1478 1478 1478 1478 1477 1477 1476 1476 1475 1475 1475
1473 1473 1473 1474 1474 1474 1474 1474 1475 1475 1475 1476 1476 1476 1476 1476 1476 1476 1477 1477 1477 1476 1476 1476 1476 1476 1476 1476 1477 1477 1477 1476 1476 1476 1476 1475 1475 1474 1474 1473 1473 1473 1473
1469 1469 1470 1470 1471 1471 1472 1472 1472 1472 1473 1473 1474 1474 1474 1474 1474 1474 1475 1475 1475 1475 1475 1475 1475 1474 1474 1475 1475 1475 1475 1475 1474 1474 1473 1473 1473 1472 1471 1471 1471 1471 1470